This is the latest recevied weather packets stored in our database for station/object DC4AT. If no packets are shown the sender has not sent any weather packets the latest 10 day(s).
| Time | Temp. | Humidity | Pressure | Rain* | Wind** | Luminosity | Snow |
|---|---|---|---|---|---|---|---|
| 1788544631 | 16.67° C | 84% | 1011 hPa | 0.51 mm | - | 0 W/m² | - |
| 1788544031 | 16.67° C | 84% | 1010.8 hPa | 0.76 mm | - | 0 W/m² | - |
| 1788543431 | 16.67° C | 83% | 1010.6 hPa | 1.02 mm | - | 5 W/m² | - |
| 1788542831 | 16.67° C | 83% | 1011 hPa | 1.27 mm | - | 9 W/m² | - |
| 1788542231 | 16.67° C | 83% | 1010.8 hPa | 5.08 mm | - | 5 W/m² | - |
| 1788541631 | 16.67° C | 82% | 1010.6 hPa | 5.33 mm | - | 5 W/m² | - |
| 1788541031 | 17.22° C | 82% | 1010.5 hPa | 5.08 mm | - | 9 W/m² | - |
| 1788540431 | 17.22° C | 82% | 1010.3 hPa | 4.83 mm | - | 7 W/m² | - |
| 1788539831 | 16.67° C | 82% | 1010.4 hPa | 4.83 mm | - | 21 W/m² | - |
| 1788539231 | 16.67° C | 83% | 1010.4 hPa | 4.57 mm | - | 14 W/m² | - |
| 1788538632 | 16.67° C | 84% | 1010 hPa | 0.76 mm | - | 0 W/m² | - |
| 1788538032 | 17.22° C | 85% | 1009.5 hPa | 0.25 mm | - | 14 W/m² | - |
| 1788537432 | 17.22° C | 85% | 1009.3 hPa | 0.25 mm | - | 12 W/m² | - |
| 1788536832 | 17.22° C | 85% | 1009.2 hPa | 0.25 mm | - | 21 W/m² | - |
| 1788536232 | 17.22° C | 86% | 1009.3 hPa | 0 mm | - | 49 W/m² | - |
| 1788535632 | 17.22° C | 85% | 1009.7 hPa | 0 mm | - | 21 W/m² | - |
| 1788535032 | 17.78° C | 84% | 1009.6 hPa | 0 mm | - | 19 W/m² | - |
| 1788534432 | 18.89° C | 81% | 1009.6 hPa | 0 mm | - | 16 W/m² | - |
| 1788533832 | 19.44° C | 79% | 1009.3 hPa | 0 mm | - | 23 W/m² | - |
| 1788533232 | 20° C | 76% | 1009.4 hPa | 0 mm | - | 33 W/m² | - |
| 1788532632 | 21.67° C | 69% | 1009.4 hPa | 0 mm | - | 33 W/m² | - |
| 1788532032 | 24.44° C | 63% | 1009.3 hPa | 0 mm | - | 39 W/m² | - |
| 1788531432 | 24.44° C | 64% | 1009.4 hPa | 0 mm | - | 102 W/m² | - |
| 1788530832 | 24.44° C | 63% | 1009.5 hPa | 0 mm | - | 120 W/m² | - |
| 1788530232 | 24.44° C | 65% | 1009.4 hPa | 0 mm | - | 88 W/m² | - |
* Rain latest hour (hover to see other rain measurements)
** Current wind speed in m/s (hover to see current wind gust speed)